Time,TemperatureF,DewpointF,PressureIn,WindDirection,WindDirectionDegrees,WindSpeedMPH,WindSpeedGustMPH,Humidity,HourlyPrecipIn,Conditions,Clouds,dailyrainin,SoftwareType,DateUTC
2013-07-04 00:00:00,62.1,55.5,30.00,SSE,158,1.0,3.0,79,0.00,,,0.00,VWS V14.00,2013-07-04 05:00:00,
2013-07-04 00:05:00,61.9,55.0,30.00,South,180,3.0,6.0,78,0.00,,,0.00,VWS V14.00,2013-07-04 05:05:00,
2013-07-04 00:10:00,62.0,54.7,30.00,South,180,3.0,6.0,77,0.00,,,0.00,VWS V14.00,2013-07-04 05:10:00,
2013-07-04 00:15:00,62.2,54.9,30.00,South,180,2.0,5.0,77,0.00,,,0.00,VWS V14.00,2013-07-04 05:15:00,
2013-07-04 00:20:00,62.3,55.4,30.00,South,180,1.0,3.0,78,0.00,,,0.00,VWS V14.00,2013-07-04 05:20:00,
2013-07-04 00:25:00,62.2,55.3,30.00,South,180,0.0,3.0,78,0.00,,,0.00,VWS V14.00,2013-07-04 05:25:00,
2013-07-04 00:30:00,62.0,55.1,30.00,South,180,1.0,3.0,78,0.00,,,0.00,VWS V14.00,2013-07-04 05:30:00,
2013-07-04 00:35:00,62.0,55.4,30.01,South,180,0.0,0.0,79,0.00,,,0.00,VWS V14.00,2013-07-04 05:35:00,
2013-07-04 00:40:00,61.8,55.6,30.00,South,180,0.0,0.0,80,0.00,,,0.00,VWS V14.00,2013-07-04 05:40:00,
2013-07-04 00:45:00,61.6,55.7,30.01,South,180,0.0,2.0,81,0.00,,,0.00,VWS V14.00,2013-07-04 05:45:00,
2013-07-04 00:50:00,61.3,55.4,30.01,South,180,0.0,2.0,81,0.00,,,0.00,VWS V14.00,2013-07-04 05:50:00,
2013-07-04 00:55:00,61.0,55.5,30.01,South,180,0.0,0.0,82,0.00,,,0.00,VWS V14.00,2013-07-04 05:55:00,
2013-07-04 01:00:00,60.7,55.2,30.01,South,180,0.0,0.0,82,0.00,,,0.00,VWS V14.00,2013-07-04 06:00:00,
2013-07-04 01:05:00,60.5,55.0,30.01,South,180,0.0,0.0,82,0.00,,,0.00,VWS V14.00,2013-07-04 06:05:00,
2013-07-04 01:10:00,60.4,55.5,30.01,South,180,0.0,0.0,84,0.00,,,0.00,VWS V14.00,2013-07-04 06:10:00,
2013-07-04 01:15:00,60.3,55.5,30.01,South,180,1.0,4.0,84,0.00,,,0.00,VWS V14.00,2013-07-04 06:15:00,
2013-07-04 01:20:00,60.0,55.2,30.01,South,180,2.0,6.0,84,0.00,,,0.00,VWS V14.00,2013-07-04 06:20:00,
2013-07-04 01:25:00,60.0,55.2,30.01,SW,225,3.0,6.0,84,0.00,,,0.00,VWS V14.00,2013-07-04 06:25:00,
2013-07-04 01:30:00,60.0,55.2,30.01,SW,225,2.0,5.0,84,0.00,,,0.00,VWS V14.00,2013-07-04 06:30:00,
2013-07-04 01:35:00,59.9,55.1,30.01,SW,225,3.0,6.0,84,0.00,,,0.00,VWS V14.00,2013-07-04 06:35:00,
2013-07-04 01:40:00,59.8,55.3,30.01,SW,225,3.0,7.0,85,0.00,,,0.00,VWS V14.00,2013-07-04 06:40:00,
2013-07-04 01:45:00,59.8,55.0,30.01,SW,225,2.0,6.0,84,0.00,,,0.00,VWS V14.00,2013-07-04 06:45:00,
2013-07-04 01:50:00,59.8,55.3,30.01,SW,225,4.0,7.0,85,0.00,,,0.00,VWS V14.00,2013-07-04 06:50:00,
2013-07-04 01:55:00,59.8,55.0,30.00,SW,225,2.0,7.0,84,0.00,,,0.00,VWS V14.00,2013-07-04 06:55:00,
2013-07-04 02:00:00,59.8,55.3,30.00,South,180,3.0,7.0,85,0.00,,,0.00,VWS V14.00,2013-07-04 07:00:00,
2013-07-04 02:05:00,59.8,55.0,30.00,SSW,202,1.0,6.0,84,0.00,,,0.00,VWS V14.00,2013-07-04 07:05:00,
2013-07-04 02:10:00,59.9,55.4,30.00,SSW,202,1.0,5.0,85,0.00,,,0.00,VWS V14.00,2013-07-04 07:10:00,
2013-07-04 02:15:00,59.9,55.4,30.00,SSW,202,0.0,3.0,85,0.00,,,0.00,VWS V14.00,2013-07-04 07:15:00,
2013-07-04 02:20:00,59.8,55.3,30.00,SSW,202,0.0,0.0,85,0.00,,,0.00,VWS V14.00,2013-07-04 07:20:00,
2013-07-04 02:25:00,59.6,55.4,30.00,SSW,202,0.0,0.0,86,0.00,,,0.00,VWS V14.00,2013-07-04 07:25:00,
2013-07-04 02:30:00,59.5,55.3,30.00,SSW,202,0.0,0.0,86,0.00,,,0.00,VWS V14.00,2013-07-04 07:30:00,
2013-07-04 02:35:00,59.3,55.1,30.00,SSW,202,0.0,0.0,86,0.00,,,0.00,VWS V14.00,2013-07-04 07:35:00,
2013-07-04 02:40:00,59.1,54.9,30.00,SSW,202,0.0,0.0,86,0.00,,,0.00,VWS V14.00,2013-07-04 07:40:00,
2013-07-04 02:45:00,58.9,54.7,30.00,SSW,202,0.0,0.0,86,0.00,,,0.00,VWS V14.00,2013-07-04 07:45:00,
2013-07-04 02:50:00,58.6,54.8,30.00,SSW,202,0.0,0.0,87,0.00,,,0.00,VWS V14.00,2013-07-04 07:50:00,
2013-07-04 02:55:00,58.4,54.5,30.00,SSW,202,0.0,0.0,87,0.00,,,0.00,VWS V14.00,2013-07-04 07:55:00,
2013-07-04 03:00:00,58.1,54.3,30.00,SSW,202,0.0,0.0,87,0.00,,,0.00,VWS V14.00,2013-07-04 08:00:00,
2013-07-04 03:05:00,57.8,54.3,30.00,SSW,202,0.0,0.0,88,0.00,,,0.00,VWS V14.00,2013-07-04 08:05:00,
2013-07-04 03:10:00,57.6,54.1,30.00,SSW,202,0.0,0.0,88,0.00,,,0.00,VWS V14.00,2013-07-04 08:10:00,
2013-07-04 03:15:00,57.5,54.3,30.00,SSW,202,0.0,0.0,89,0.00,,,0.00,VWS V14.00,2013-07-04 08:15:00,
2013-07-04 03:20:00,57.4,54.2,30.00,SSW,202,0.0,0.0,89,0.00,,,0.00,VWS V14.00,2013-07-04 08:20:00,
2013-07-04 03:25:00,57.4,54.8,30.00,SSW,202,0.0,0.0,91,0.00,,,0.00,VWS V14.00,2013-07-04 08:25:00,
2013-07-04 03:30:00,57.5,54.6,30.00,SSW,202,0.0,0.0,90,0.00,,,0.00,VWS V14.00,2013-07-04 08:30:00,
2013-07-04 03:35:00,57.4,54.5,30.00,SSW,202,0.0,1.0,90,0.00,,,0.00,VWS V14.00,2013-07-04 08:35:00,
2013-07-04 03:40:00,57.3,54.4,30.00,SSW,202,0.0,2.0,90,0.00,,,0.00,VWS V14.00,2013-07-04 08:40:00,
2013-07-04 03:45:00,57.2,54.3,30.00,SSW,202,0.0,0.0,90,0.00,,,0.00,VWS V14.00,2013-07-04 08:45:00,
2013-07-04 03:50:00,57.2,54.3,30.00,SSW,202,0.0,0.0,90,0.00,,,0.00,VWS V14.00,2013-07-04 08:50:00,
2013-07-04 03:55:00,57.0,54.1,30.00,SSW,202,0.0,0.0,90,0.00,,,0.00,VWS V14.00,2013-07-04 08:55:00,
2013-07-04 04:00:00,56.9,54.0,30.00,SSW,202,0.0,0.0,90,0.00,,,0.00,VWS V14.00,2013-07-04 09:00:00,
2013-07-04 04:05:00,56.8,53.9,30.00,SSW,202,0.0,0.0,90,0.00,,,0.00,VWS V14.00,2013-07-04 09:05:00,
2013-07-04 04:10:00,56.7,53.8,30.00,SSW,202,0.0,0.0,90,0.00,,,0.00,VWS V14.00,2013-07-04 09:10:00,
2013-07-04 04:15:00,56.6,54.0,30.00,SSW,202,0.0,0.0,91,0.00,,,0.00,VWS V14.00,2013-07-04 09:15:00,
2013-07-04 04:20:00,56.5,53.9,29.99,SSW,202,0.0,0.0,91,0.00,,,0.00,VWS V14.00,2013-07-04 09:20:00,
2013-07-04 04:25:00,56.4,53.8,30.00,SSW,202,0.0,0.0,91,0.00,,,0.00,VWS V14.00,2013-07-04 09:25:00,
2013-07-04 04:30:00,56.3,53.7,30.00,SSW,202,0.0,0.0,91,0.00,,,0.00,VWS V14.00,2013-07-04 09:30:00,
2013-07-04 04:35:00,56.2,53.6,29.99,SSW,202,0.0,0.0,91,0.00,,,0.00,VWS V14.00,2013-07-04 09:35:00,
2013-07-04 04:40:00,56.1,53.5,29.99,SSW,202,0.0,0.0,91,0.00,,,0.00,VWS V14.00,2013-07-04 09:40:00,
2013-07-04 04:45:00,56.1,53.5,30.00,SSW,202,0.0,0.0,91,0.00,,,0.00,VWS V14.00,2013-07-04 09:45:00,
2013-07-04 04:50:00,56.1,53.8,30.00,SSW,202,0.0,0.0,92,0.00,,,0.00,VWS V14.00,2013-07-04 09:50:00,
2013-07-04 04:55:00,56.2,53.9,30.00,SSW,202,0.0,0.0,92,0.00,,,0.00,VWS V14.00,2013-07-04 09:55:00,
2013-07-04 05:00:00,56.2,53.9,30.00,SSW,202,0.0,0.0,92,0.00,,,0.00,VWS V14.00,2013-07-04 10:00:00,
2013-07-04 05:05:00,56.1,53.8,30.00,SSW,202,0.0,0.0,92,0.00,,,0.00,VWS V14.00,2013-07-04 10:05:00,
2013-07-04 05:10:00,56.1,53.8,30.00,SSW,202,0.0,0.0,92,0.00,,,0.00,VWS V14.00,2013-07-04 10:10:00,
2013-07-04 05:15:00,56.0,53.7,30.00,SSW,202,0.0,0.0,92,0.00,,,0.00,VWS V14.00,2013-07-04 10:15:00,
2013-07-04 05:20:00,55.8,53.5,30.00,SSW,202,0.0,0.0,92,0.00,,,0.00,VWS V14.00,2013-07-04 10:20:00,
2013-07-04 05:25:00,55.6,53.0,30.00,SSW,202,0.0,0.0,91,0.00,,,0.00,VWS V14.00,2013-07-04 10:25:00,
2013-07-04 05:30:00,55.5,52.9,30.00,SSW,202,0.0,0.0,91,0.00,,,0.00,VWS V14.00,2013-07-04 10:30:00,
2013-07-04 05:35:00,55.4,53.1,30.00,SSW,202,0.0,0.0,92,0.00,,,0.00,VWS V14.00,2013-07-04 10:35:00,
2013-07-04 05:40:00,55.3,53.0,30.00,SSW,202,0.0,0.0,92,0.00,,,0.00,VWS V14.00,2013-07-04 10:40:00,
2013-07-04 05:45:00,55.3,53.0,30.00,SSW,202,0.0,0.0,92,0.00,,,0.00,VWS V14.00,2013-07-04 10:45:00,
2013-07-04 05:50:00,55.3,53.0,30.01,SSW,202,0.0,0.0,92,0.00,,,0.00,VWS V14.00,2013-07-04 10:50:00,
2013-07-04 05:55:00,55.3,53.0,30.01,SSW,202,0.0,0.0,92,0.00,,,0.00,VWS V14.00,2013-07-04 10:55:00,
2013-07-04 06:00:00,55.3,53.0,30.01,SSW,202,0.0,0.0,92,0.00,,,0.00,VWS V14.00,2013-07-04 11:00:00,
2013-07-04 06:05:00,55.3,53.3,30.01,SSW,202,0.0,0.0,93,0.00,,,0.00,VWS V14.00,2013-07-04 11:05:00,
2013-07-04 06:10:00,55.4,53.4,30.01,SSW,202,0.0,0.0,93,0.00,,,0.00,VWS V14.00,2013-07-04 11:10:00,
2013-07-04 06:15:00,55.5,53.5,30.02,SSW,202,0.0,0.0,93,0.00,,,0.00,VWS V14.00,2013-07-04 11:15:00,
2013-07-04 06:20:00,55.5,53.5,30.01,SSW,202,0.0,0.0,93,0.00,,,0.00,VWS V14.00,2013-07-04 11:20:00,
2013-07-04 06:25:00,55.4,53.4,30.02,SSW,202,0.0,0.0,93,0.00,,,0.00,VWS V14.00,2013-07-04 11:25:00,
2013-07-04 06:30:00,55.5,53.5,30.02,SSW,202,0.0,0.0,93,0.00,,,0.00,VWS V14.00,2013-07-04 11:30:00,
2013-07-04 06:35:00,55.5,53.5,30.02,SSW,202,0.0,0.0,93,0.00,,,0.00,VWS V14.00,2013-07-04 11:35:00,
2013-07-04 06:40:00,55.6,53.6,30.02,SSW,202,0.0,0.0,93,0.00,,,0.00,VWS V14.00,2013-07-04 11:40:00,
2013-07-04 06:45:00,55.7,53.7,30.02,SSW,202,0.0,0.0,93,0.00,,,0.00,VWS V14.00,2013-07-04 11:45:00,
2013-07-04 06:50:00,55.9,54.2,30.02,SSW,202,0.0,0.0,94,0.00,,,0.00,VWS V14.00,2013-07-04 11:50:00,
2013-07-04 06:55:00,56.0,54.3,30.03,SSW,202,0.0,0.0,94,0.00,,,0.00,VWS V14.00,2013-07-04 11:55:00,
2013-07-04 07:00:00,56.2,54.5,30.02,SSW,202,0.0,0.0,94,0.00,,,0.00,VWS V14.00,2013-07-04 12:00:00,
2013-07-04 07:05:00,56.4,54.7,30.03,SSW,202,0.0,0.0,94,0.00,,,0.00,VWS V14.00,2013-07-04 12:05:00,
2013-07-04 07:10:00,56.6,54.9,30.03,SSW,202,0.0,0.0,94,0.00,,,0.00,VWS V14.00,2013-07-04 12:10:00,
2013-07-04 07:15:00,56.8,55.1,30.03,SSW,202,0.0,0.0,94,0.00,,,0.00,VWS V14.00,2013-07-04 12:15:00,
2013-07-04 07:20:00,57.1,55.4,30.03,SSW,202,0.0,0.0,94,0.00,,,0.00,VWS V14.00,2013-07-04 12:20:00,
2013-07-04 07:25:00,57.3,55.6,30.03,SSW,202,0.0,0.0,94,0.00,,,0.00,VWS V14.00,2013-07-04 12:25:00,
2013-07-04 07:30:00,57.7,56.0,30.03,SSW,202,0.0,0.0,94,0.00,,,0.00,VWS V14.00,2013-07-04 12:30:00,
2013-07-04 07:35:00,58.1,56.4,30.03,SSW,202,0.0,0.0,94,0.00,,,0.00,VWS V14.00,2013-07-04 12:35:00,
2013-07-04 07:40:00,58.5,57.1,30.03,SSW,202,0.0,0.0,95,0.00,,,0.00,VWS V14.00,2013-07-04 12:40:00,
2013-07-04 07:51:00,58.8,57.4,30.03,SSW,202,0.0,0.0,95,0.00,,,0.00,VWS V14.00,2013-07-04 12:51:00,
2013-07-04 07:56:00,59.6,58.2,30.03,SSW,202,0.0,0.0,95,0.00,,,0.00,VWS V14.00,2013-07-04 12:56:00,
2013-07-04 08:01:00,59.9,58.5,30.04,SSW,203,0.0,0.0,95,0.00,,,0.00,VWS V14.00,2013-07-04 13:01:00,
2013-07-04 08:06:00,60.3,58.9,30.04,SSW,203,0.0,0.0,95,0.00,,,0.00,VWS V14.00,2013-07-04 13:06:00,
2013-07-04 08:11:00,60.7,59.3,30.04,SSW,202,0.0,0.0,95,0.00,,,0.00,VWS V14.00,2013-07-04 13:11:00,
2013-07-04 08:16:00,61.3,59.9,30.04,SSW,202,0.0,0.0,95,0.00,,,0.00,VWS V14.00,2013-07-04 13:16:00,
2013-07-04 08:21:00,61.7,60.3,30.04,SSW,202,0.0,0.0,95,0.00,,,0.00,VWS V14.00,2013-07-04 13:21:00,
2013-07-04 08:26:00,62.3,60.8,30.04,SSW,203,0.0,0.0,95,0.00,,,0.00,VWS V14.00,2013-07-04 13:26:00,
2013-07-04 08:31:00,62.9,61.5,30.04,SSW,202,0.0,0.0,95,0.00,,,0.00,VWS V14.00,2013-07-04 13:31:00,
2013-07-04 08:36:00,63.5,61.8,30.04,SSW,202,0.0,0.0,94,0.00,,,0.00,VWS V14.00,2013-07-04 13:36:00,
2013-07-04 08:41:00,64.3,61.9,30.04,SSW,202,0.0,0.0,92,0.00,,,0.00,VWS V14.00,2013-07-04 13:41:00,
2013-07-04 08:46:00,65.0,62.0,30.04,SSW,202,0.0,0.0,90,0.00,,,0.00,VWS V14.00,2013-07-04 13:46:00,
2013-07-04 08:51:00,65.8,61.5,30.04,SSW,201,3.0,3.0,86,0.00,,,0.00,VWS V14.00,2013-07-04 13:51:00,
2013-07-04 08:56:00,66.7,61.7,30.04,South,172,0.0,1.0,84,0.00,,,0.00,VWS V14.00,2013-07-04 13:56:00,
2013-07-04 09:01:00,67.5,62.8,30.04,SSW,199,5.0,5.0,85,0.00,,,0.00,VWS V14.00,2013-07-04 14:01:00,
2013-07-04 09:06:00,68.4,62.0,30.04,South,183,1.0,7.0,80,0.00,,,0.00,VWS V14.00,2013-07-04 14:06:00,
2013-07-04 09:11:00,69.2,61.7,30.04,SSW,197,1.0,5.0,77,0.00,,,0.00,VWS V14.00,2013-07-04 14:11:00,
2013-07-04 09:16:00,69.9,62.7,30.03,SSW,193,2.0,5.0,78,0.00,,,0.00,VWS V14.00,2013-07-04 14:16:00,
2013-07-04 09:21:00,70.7,61.6,30.03,South,189,2.0,4.0,73,0.00,,,0.00,VWS V14.00,2013-07-04 14:21:00,
2013-07-04 09:26:00,71.2,60.9,30.03,South,176,3.0,7.0,70,0.00,,,0.00,VWS V14.00,2013-07-04 14:26:00,
2013-07-04 09:31:00,71.8,60.7,30.03,South,178,5.0,5.0,68,0.00,,,0.00,VWS V14.00,2013-07-04 14:31:00,
2013-07-04 09:36:00,72.4,61.2,30.02,South,174,0.0,4.0,68,0.00,,,0.00,VWS V14.00,2013-07-04 14:36:00,
2013-07-04 09:41:00,73.1,61.9,30.02,South,178,4.0,6.0,68,0.00,,,0.00,VWS V14.00,2013-07-04 14:41:00,
2013-07-04 09:46:00,73.6,63.2,30.02,SSW,193,0.0,1.0,70,0.00,,,0.00,VWS V14.00,2013-07-04 14:46:00,
2013-07-04 09:51:00,74.2,61.7,30.02,SSW,193,1.0,2.0,65,0.00,,,0.00,VWS V14.00,2013-07-04 14:51:00,
2013-07-04 09:56:00,74.8,62.7,30.02,South,172,8.0,8.0,66,0.00,,,0.00,VWS V14.00,2013-07-04 14:56:00,
2013-07-04 10:01:00,75.3,62.7,30.02,South,191,0.0,4.0,65,0.00,,,0.00,VWS V14.00,2013-07-04 15:01:00,
2013-07-04 10:06:00,75.9,65.8,30.02,SSW,192,0.0,3.0,71,0.00,,,0.00,VWS V14.00,2013-07-04 15:06:00,
2013-07-04 10:11:00,76.9,65.1,30.02,SSW,213,2.0,6.0,67,0.00,,,0.00,VWS V14.00,2013-07-04 15:11:00,
2013-07-04 10:16:00,77.9,65.6,30.02,SW,220,0.0,4.0,66,0.00,,,0.00,VWS V14.00,2013-07-04 15:16:00,
2013-07-04 10:21:00,78.2,64.1,30.02,SW,214,1.0,4.0,62,0.00,,,0.00,VWS V14.00,2013-07-04 15:21:00,
2013-07-04 10:26:00,78.6,65.9,30.02,SW,231,6.0,7.0,65,0.00,,,0.00,VWS V14.00,2013-07-04 15:26:00,
2013-07-04 10:31:00,79.3,66.1,30.02,SW,224,1.0,3.0,64,0.00,,,0.00,VWS V14.00,2013-07-04 15:31:00,
2013-07-04 10:36:00,79.9,63.3,30.02,SW,214,2.0,3.0,57,0.00,,,0.00,VWS V14.00,2013-07-04 15:36:00,
2013-07-04 10:41:00,79.9,65.7,30.02,SW,214,5.0,6.0,62,0.00,,,0.00,VWS V14.00,2013-07-04 15:41:00,
2013-07-04 10:46:00,80.4,65.7,30.02,WSW,245,3.0,6.0,61,0.00,,,0.00,VWS V14.00,2013-07-04 15:46:00,
2013-07-04 10:51:00,81.4,67.1,30.02,WSW,246,0.0,3.0,62,0.00,,,0.00,VWS V14.00,2013-07-04 15:51:00,
2013-07-04 10:56:00,81.5,65.3,30.02,South,189,0.0,1.0,58,0.00,,,0.00,VWS V14.00,2013-07-04 15:56:00,
2013-07-04 11:01:00,81.8,65.6,30.02,WSW,246,0.0,6.0,58,0.00,,,0.00,VWS V14.00,2013-07-04 16:01:00,
2013-07-04 11:06:00,81.9,66.7,30.02,SW,226,5.0,7.0,60,0.00,,,0.00,VWS V14.00,2013-07-04 16:06:00,
2013-07-04 11:11:00,82.2,68.4,30.02,WSW,242,1.0,6.0,63,0.00,,,0.00,VWS V14.00,2013-07-04 16:11:00,
2013-07-04 11:16:00,82.8,67.0,30.02,SW,231,0.0,1.0,59,0.00,,,0.00,VWS V14.00,2013-07-04 16:16:00,
2013-07-04 11:21:00,83.1,66.3,30.02,SSW,193,1.0,3.0,57,0.00,,,0.00,VWS V14.00,2013-07-04 16:21:00,
2013-07-04 11:26:00,83.3,68.0,30.02,SSW,193,1.0,2.0,60,0.00,,,0.00,VWS V14.00,2013-07-04 16:26:00,
2013-07-04 11:31:00,83.5,66.7,30.02,SW,224,0.0,0.0,57,0.00,,,0.00,VWS V14.00,2013-07-04 16:31:00,
2013-07-04 11:36:00,83.6,65.7,30.02,SW,214,3.0,4.0,55,0.00,,,0.00,VWS V14.00,2013-07-04 16:36:00,
2013-07-04 11:41:00,83.8,66.4,30.02,SW,222,1.0,4.0,56,0.00,,,0.00,VWS V14.00,2013-07-04 16:41:00,
2013-07-04 11:46:00,84.3,63.7,30.02,SW,235,4.0,6.0,50,0.00,,,0.00,VWS V14.00,2013-07-04 16:46:00,
2013-07-04 11:51:00,84.4,66.5,30.01,WSW,239,0.0,4.0,55,0.00,,,0.00,VWS V14.00,2013-07-04 16:51:00,
2013-07-04 11:56:00,84.9,65.9,30.02,WSW,238,0.0,3.0,53,0.00,,,0.00,VWS V14.00,2013-07-04 16:56:00,
2013-07-04 12:01:00,84.7,67.3,30.02,East,89,2.0,2.0,56,0.00,,,0.00,VWS V14.00,2013-07-04 17:01:00,
2013-07-04 12:06:00,84.4,62.0,30.01,South,173,3.0,6.0,47,0.00,,,0.00,VWS V14.00,2013-07-04 17:06:00,
2013-07-04 12:11:00,83.9,64.4,30.01,South,172,3.0,6.0,52,0.00,,,0.00,VWS V14.00,2013-07-04 17:11:00,
2013-07-04 12:16:00,83.8,64.9,30.01,SSE,158,1.0,4.0,53,0.00,,,0.00,VWS V14.00,2013-07-04 17:16:00,
2013-07-04 12:21:00,84.0,66.1,30.01,SW,220,0.0,3.0,55,0.00,,,0.00,VWS V14.00,2013-07-04 17:21:00,
2013-07-04 12:26:00,84.1,61.7,30.01,SSE,164,5.0,7.0,47,0.00,,,0.00,VWS V14.00,2013-07-04 17:26:00,
2013-07-04 12:31:00,84.0,65.1,30.01,SE,146,6.0,8.0,53,0.00,,,0.00,VWS V14.00,2013-07-04 17:31:00,
2013-07-04 12:36:00,84.0,61.0,30.01,South,185,3.0,7.0,46,0.00,,,0.00,VWS V14.00,2013-07-04 17:36:00,
2013-07-04 12:41:00,84.2,61.8,30.01,South,186,0.0,4.0,47,0.00,,,0.00,VWS V14.00,2013-07-04 17:41:00,
2013-07-04 12:46:00,84.5,61.5,30.01,South,172,3.0,6.0,46,0.00,,,0.00,VWS V14.00,2013-07-04 17:46:00,
2013-07-04 12:51:00,84.2,64.1,30.01,SSW,198,1.0,1.0,51,0.00,,,0.00,VWS V14.00,2013-07-04 17:51:00,
2013-07-04 12:56:00,84.6,65.1,30.01,South,185,0.0,2.0,52,0.00,,,0.00,VWS V14.00,2013-07-04 17:56:00,
2013-07-04 13:01:00,84.1,65.1,30.01,South,186,0.0,0.0,53,0.00,,,0.00,VWS V14.00,2013-07-04 18:01:00,
2013-07-04 13:06:00,84.1,60.5,30.00,SSW,212,5.0,5.0,45,0.00,,,0.00,VWS V14.00,2013-07-04 18:06:00,
2013-07-04 13:11:00,83.3,63.3,30.00,South,181,0.0,1.0,51,0.00,,,0.00,VWS V14.00,2013-07-04 18:11:00,
2013-07-04 13:16:00,83.1,58.3,30.00,South,182,0.0,0.0,43,0.00,,,0.00,VWS V14.00,2013-07-04 18:16:00,
2013-07-04 13:21:00,83.3,64.9,30.00,WSW,246,2.0,3.0,54,0.00,,,0.00,VWS V14.00,2013-07-04 18:21:00,
2013-07-04 13:26:00,83.5,66.2,30.00,SW,218,4.0,4.0,56,0.00,,,0.00,VWS V14.00,2013-07-04 18:26:00,
2013-07-04 13:31:00,84.0,66.1,30.00,West,265,1.0,3.0,55,0.00,,,0.00,VWS V14.00,2013-07-04 18:31:00,
2013-07-04 13:36:00,84.4,60.8,30.00,South,173,1.0,4.0,45,0.00,,,0.00,VWS V14.00,2013-07-04 18:36:00,
2013-07-04 13:41:00,84.5,65.5,30.00,SSW,193,0.0,1.0,53,0.00,,,0.00,VWS V14.00,2013-07-04 18:41:00,
2013-07-04 13:46:00,84.5,60.2,29.99,South,182,1.0,5.0,44,0.00,,,0.00,VWS V14.00,2013-07-04 18:46:00,
2013-07-04 13:51:00,84.6,63.3,29.99,SE,141,2.0,3.0,49,0.00,,,0.00,VWS V14.00,2013-07-04 18:51:00,
2013-07-04 13:56:00,84.8,61.1,29.99,South,180,4.0,5.0,45,0.00,,,0.00,VWS V14.00,2013-07-04 18:56:00,
2013-07-04 14:01:00,84.7,62.9,29.99,SE,141,6.0,10.0,48,0.00,,,0.00,VWS V14.00,2013-07-04 19:01:00,
2013-07-04 14:06:00,83.9,57.0,29.99,South,174,0.0,5.0,40,0.00,,,0.00,VWS V14.00,2013-07-04 19:06:00,
2013-07-04 14:11:00,83.6,64.1,29.99,SE,124,0.0,2.0,52,0.00,,,0.00,VWS V14.00,2013-07-04 19:11:00,
2013-07-04 14:16:00,83.9,57.7,29.98,SE,124,0.0,0.0,41,0.00,,,0.00,VWS V14.00,2013-07-04 19:16:00,
2013-07-04 14:21:00,84.8,63.0,29.98,SSE,165,7.0,8.0,48,0.00,,,0.00,VWS V14.00,2013-07-04 19:21:00,
2013-07-04 14:26:00,85.6,59.9,29.98,South,187,5.0,7.0,42,0.00,,,0.00,VWS V14.00,2013-07-04 19:26:00,
2013-07-04 14:31:00,84.8,61.7,29.98,SSW,204,2.0,5.0,46,0.00,,,0.00,VWS V14.00,2013-07-04 19:31:00,
2013-07-04 14:36:00,84.1,61.1,29.98,South,189,4.0,5.0,46,0.00,,,0.00,VWS V14.00,2013-07-04 19:36:00,
2013-07-04 14:41:00,83.8,60.8,29.98,ESE,118,3.0,9.0,46,0.00,,,0.00,VWS V14.00,2013-07-04 19:41:00,
2013-07-04 14:46:00,84.2,63.0,29.97,SE,141,2.0,3.0,49,0.00,,,0.00,VWS V14.00,2013-07-04 19:46:00,
2013-07-04 14:51:00,84.5,58.9,29.97,SSE,158,7.0,8.0,42,0.00,,,0.00,VWS V14.00,2013-07-04 19:51:00,
2013-07-04 14:56:00,84.0,60.4,29.97,SE,145,2.0,4.0,45,0.00,,,0.00,VWS V14.00,2013-07-04 19:56:00,
2013-07-04 15:01:00,84.1,68.7,29.97,SE,145,0.0,0.0,60,0.00,,,0.00,VWS V14.00,2013-07-04 20:01:00,
2013-07-04 15:06:00,84.4,62.0,29.97,ESE,112,0.0,0.0,47,0.00,,,0.00,VWS V14.00,2013-07-04 20:06:00,
2013-07-04 15:11:00,84.8,57.1,29.97,South,176,7.0,7.0,39,0.00,,,0.00,VWS V14.00,2013-07-04 20:11:00,
2013-07-04 15:16:00,84.8,59.2,29.97,SSE,167,6.0,8.0,42,0.00,,,0.00,VWS V14.00,2013-07-04 20:16:00,
2013-07-04 15:21:00,84.8,60.5,29.97,SSE,150,0.0,1.0,44,0.00,,,0.00,VWS V14.00,2013-07-04 20:21:00,
2013-07-04 15:26:00,84.7,57.0,29.97,South,172,2.0,4.0,39,0.00,,,0.00,VWS V14.00,2013-07-04 20:26:00,
2013-07-04 15:31:00,84.6,61.6,29.96,SW,223,3.0,3.0,46,0.00,,,0.00,VWS V14.00,2013-07-04 20:31:00,
2013-07-04 15:36:00,84.4,60.8,29.96,SW,227,4.0,5.0,45,0.00,,,0.00,VWS V14.00,2013-07-04 20:36:00,
2013-07-04 15:41:00,84.0,57.1,29.96,SSE,168,8.0,8.0,40,0.00,,,0.00,VWS V14.00,2013-07-04 20:41:00,
2013-07-04 15:46:00,83.8,57.6,29.96,SSE,153,3.0,3.0,41,0.00,,,0.00,VWS V14.00,2013-07-04 20:46:00,
2013-07-04 15:50:00,83.7,56.8,29.96,South,180,3.0,7.0,40,0.00,,,0.00,VWS V14.00,2013-07-04 20:50:00,
2013-07-04 15:55:00,83.7,58.8,29.96,SE,135,1.0,4.0,43,0.00,,,0.00,VWS V14.00,2013-07-04 20:55:00,
2013-07-04 16:00:00,83.6,59.4,29.96,SE,135,2.0,7.0,44,0.00,,,0.00,VWS V14.00,2013-07-04 21:00:00,
2013-07-04 16:05:00,83.1,57.7,29.97,South,180,5.0,9.0,42,0.00,,,0.00,VWS V14.00,2013-07-04 21:05:00,
2013-07-04 16:10:00,83.1,57.7,29.96,SSE,158,3.0,7.0,42,0.00,,,0.00,VWS V14.00,2013-07-04 21:10:00,
2013-07-04 16:15:00,83.2,57.8,29.96,SSW,202,2.0,9.0,42,0.00,,,0.00,VWS V14.00,2013-07-04 21:15:00,
2013-07-04 16:20:00,83.2,57.8,29.96,South,180,1.0,4.0,42,0.00,,,0.00,VWS V14.00,2013-07-04 21:20:00,
2013-07-04 16:25:00,83.1,54.9,29.96,SSE,158,1.0,7.0,38,0.00,,,0.00,VWS V14.00,2013-07-04 21:25:00,
2013-07-04 16:30:00,83.1,57.7,29.96,SSE,158,3.0,7.0,42,0.00,,,0.00,VWS V14.00,2013-07-04 21:30:00,
2013-07-04 16:35:00,83.1,60.8,29.95,SSE,158,2.0,9.0,47,0.00,,,0.00,VWS V14.00,2013-07-04 21:35:00,
2013-07-04 16:40:00,82.8,58.7,29.95,SE,135,4.0,10.0,44,0.00,,,0.00,VWS V14.00,2013-07-04 21:40:00,
2013-07-04 16:45:00,82.3,56.9,29.95,SSE,158,5.0,8.0,42,0.00,,,0.00,VWS V14.00,2013-07-04 21:45:00,
2013-07-04 16:50:00,81.8,59.6,29.95,South,180,3.0,5.0,47,0.00,,,0.00,VWS V14.00,2013-07-04 21:50:00,
2013-07-04 16:55:00,81.6,56.3,29.95,South,180,1.0,4.0,42,0.00,,,0.00,VWS V14.00,2013-07-04 21:55:00,
2013-07-04 17:00:00,81.8,60.2,29.95,South,180,1.0,6.0,48,0.00,,,0.00,VWS V14.00,2013-07-04 22:00:00,
2013-07-04 17:05:00,82.0,57.3,29.95,South,180,4.0,9.0,43,0.00,,,0.00,VWS V14.00,2013-07-04 22:05:00,
2013-07-04 17:10:00,82.1,61.1,29.95,SSE,158,4.0,10.0,49,0.00,,,0.00,VWS V14.00,2013-07-04 22:10:00,
2013-07-04 17:15:00,82.2,58.8,29.94,South,180,5.0,9.0,45,0.00,,,0.00,VWS V14.00,2013-07-04 22:15:00,
2013-07-04 17:20:00,82.3,62.4,29.94,SSE,158,1.0,4.0,51,0.00,,,0.00,VWS V14.00,2013-07-04 22:20:00,
2013-07-04 17:25:00,82.1,59.3,29.94,SSE,158,4.0,9.0,46,0.00,,,0.00,VWS V14.00,2013-07-04 22:25:00,
2013-07-04 17:30:00,82.1,59.3,29.94,SSE,158,4.0,7.0,46,0.00,,,0.00,VWS V14.00,2013-07-04 22:30:00,
2013-07-04 17:35:00,82.1,56.8,29.94,SSE,158,4.0,9.0,42,0.00,,,0.00,VWS V14.00,2013-07-04 22:35:00,
2013-07-04 17:40:00,82.2,60.6,29.94,SE,135,0.0,5.0,48,0.00,,,0.00,VWS V14.00,2013-07-04 22:40:00,
2013-07-04 17:45:00,82.1,56.1,29.94,SSE,158,0.0,2.0,41,0.00,,,0.00,VWS V14.00,2013-07-04 22:45:00,
2013-07-04 17:50:00,82.1,59.3,29.94,SSE,158,1.0,7.0,46,0.00,,,0.00,VWS V14.00,2013-07-04 22:50:00,
2013-07-04 17:55:00,82.0,58.0,29.94,SSE,158,4.0,10.0,44,0.00,,,0.00,VWS V14.00,2013-07-04 22:55:00,
2013-07-04 18:00:00,81.8,57.1,29.94,SSE,158,3.0,8.0,43,0.00,,,0.00,VWS V14.00,2013-07-04 23:00:00,
2013-07-04 18:05:00,81.7,59.5,29.94,SSE,158,1.0,5.0,47,0.00,,,0.00,VWS V14.00,2013-07-04 23:05:00,
2013-07-04 18:10:00,81.5,59.3,29.94,SSE,158,0.0,4.0,47,0.00,,,0.00,VWS V14.00,2013-07-04 23:10:00,
2013-07-04 18:15:00,81.3,61.5,29.94,SSE,158,2.0,8.0,51,0.00,,,0.00,VWS V14.00,2013-07-04 23:15:00,
2013-07-04 18:20:00,81.2,60.8,29.94,SSE,158,2.0,8.0,50,0.00,,,0.00,VWS V14.00,2013-07-04 23:20:00,
2013-07-04 18:25:00,81.1,62.4,29.94,SE,135,0.0,4.0,53,0.00,,,0.00,VWS V14.00,2013-07-04 23:25:00,
2013-07-04 18:30:00,80.9,61.1,29.93,South,180,1.0,6.0,51,0.00,,,0.00,VWS V14.00,2013-07-04 23:30:00,
2013-07-04 18:35:00,80.6,59.7,29.93,South,180,2.0,6.0,49,0.00,,,0.00,VWS V14.00,2013-07-04 23:35:00,
2013-07-04 18:40:00,80.4,60.6,29.93,South,180,1.0,4.0,51,0.00,,,0.00,VWS V14.00,2013-07-04 23:40:00,
2013-07-04 18:45:00,80.2,60.5,29.93,South,180,2.0,5.0,51,0.00,,,0.00,VWS V14.00,2013-07-04 23:45:00,
2013-07-04 18:50:00,80.2,57.6,29.93,South,180,2.0,7.0,46,0.00,,,0.00,VWS V14.00,2013-07-04 23:50:00,
2013-07-04 18:55:00,80.2,59.3,29.93,SSE,158,1.0,5.0,49,0.00,,,0.00,VWS V14.00,2013-07-04 23:55:00,
2013-07-04 19:00:00,80.0,60.3,29.93,SSE,158,2.0,5.0,51,0.00,,,0.00,VWS V14.00,2013-07-05 00:00:00,
2013-07-04 19:05:00,79.7,60.0,29.93,SSE,158,1.0,3.0,51,0.00,,,0.00,VWS V14.00,2013-07-05 00:05:00,
2013-07-04 19:10:00,79.4,60.3,29.93,SE,135,1.0,6.0,52,0.00,,,0.00,VWS V14.00,2013-07-05 00:10:00,
2013-07-04 19:15:00,79.1,60.5,29.93,SSE,158,1.0,5.0,53,0.00,,,0.00,VWS V14.00,2013-07-05 00:15:00,
2013-07-04 19:20:00,78.7,59.1,29.93,SSE,158,0.0,3.0,51,0.00,,,0.00,VWS V14.00,2013-07-05 00:20:00,
2013-07-04 19:25:00,78.4,59.9,29.94,SE,135,1.0,5.0,53,0.00,,,0.00,VWS V14.00,2013-07-05 00:25:00,
2013-07-04 19:30:00,78.1,59.6,29.94,SE,135,2.0,6.0,53,0.00,,,0.00,VWS V14.00,2013-07-05 00:30:00,
2013-07-04 19:35:00,77.9,59.9,29.94,SE,135,2.0,7.0,54,0.00,,,0.00,VWS V14.00,2013-07-05 00:35:00,
2013-07-04 19:40:00,77.8,59.8,29.94,SE,135,1.0,5.0,54,0.00,,,0.00,VWS V14.00,2013-07-05 00:40:00,
2013-07-04 19:45:00,77.6,59.1,29.94,SE,135,2.0,6.0,53,0.00,,,0.00,VWS V14.00,2013-07-05 00:45:00,
2013-07-04 19:50:00,77.6,59.7,29.94,SE,135,0.0,3.0,54,0.00,,,0.00,VWS V14.00,2013-07-05 00:50:00,
2013-07-04 19:55:00,77.4,59.5,29.94,ESE,112,0.0,3.0,54,0.00,,,0.00,VWS V14.00,2013-07-05 00:55:00,
2013-07-04 20:00:00,77.1,59.7,29.94,SE,135,1.0,4.0,55,0.00,,,0.00,VWS V14.00,2013-07-05 01:00:00,
2013-07-04 20:05:00,76.9,60.0,29.94,SE,135,1.0,3.0,56,0.00,,,0.00,VWS V14.00,2013-07-05 01:05:00,
2013-07-04 20:10:00,76.6,60.7,29.94,SE,135,1.0,4.0,58,0.00,,,0.00,VWS V14.00,2013-07-05 01:10:00,
2013-07-04 20:15:00,76.4,61.0,29.94,SE,135,1.0,4.0,59,0.00,,,0.00,VWS V14.00,2013-07-05 01:15:00,
2013-07-04 20:20:00,76.0,61.6,29.94,ESE,112,1.0,4.0,61,0.00,,,0.00,VWS V14.00,2013-07-05 01:20:00,
2013-07-04 20:25:00,75.5,62.0,29.94,ESE,112,1.0,3.0,63,0.00,,,0.00,VWS V14.00,2013-07-05 01:25:00,
2013-07-04 20:30:00,74.9,60.6,29.94,SE,135,2.0,4.0,61,0.00,,,0.00,VWS V14.00,2013-07-05 01:30:00,
2013-07-04 20:35:00,74.5,60.2,29.94,SE,135,1.0,4.0,61,0.00,,,0.00,VWS V14.00,2013-07-05 01:35:00,
2013-07-04 20:40:00,74.3,60.0,29.94,SE,135,2.0,5.0,61,0.00,,,0.00,VWS V14.00,2013-07-05 01:40:00,
2013-07-04 20:45:00,74.1,60.3,29.94,SE,135,2.0,5.0,62,0.00,,,0.00,VWS V14.00,2013-07-05 01:45:00,
2013-07-04 20:50:00,73.8,60.4,29.94,SE,135,1.0,5.0,63,0.00,,,0.00,VWS V14.00,2013-07-05 01:50:00,
2013-07-04 20:55:00,73.5,59.7,29.94,SE,135,2.0,5.0,62,0.00,,,0.00,VWS V14.00,2013-07-05 01:55:00,
2013-07-04 21:00:00,73.3,60.8,29.94,SE,135,2.0,5.0,65,0.00,,,0.00,VWS V14.00,2013-07-05 02:00:00,
2013-07-04 21:05:00,73.0,60.1,29.94,SE,135,2.0,7.0,64,0.00,,,0.00,VWS V14.00,2013-07-05 02:05:00,
2013-07-04 21:10:00,72.8,59.5,29.94,SE,135,2.0,5.0,63,0.00,,,0.00,VWS V14.00,2013-07-05 02:10:00,
2013-07-04 21:15:00,72.6,59.3,29.94,SE,135,1.0,5.0,63,0.00,,,0.00,VWS V14.00,2013-07-05 02:15:00,
2013-07-04 21:20:00,72.4,60.4,29.94,SE,135,2.0,8.0,66,0.00,,,0.00,VWS V14.00,2013-07-05 02:20:00,
2013-07-04 21:25:00,72.2,60.2,29.95,SE,135,3.0,7.0,66,0.00,,,0.00,VWS V14.00,2013-07-05 02:25:00,
2013-07-04 21:30:00,72.0,59.6,29.95,SE,135,4.0,8.0,65,0.00,,,0.00,VWS V14.00,2013-07-05 02:30:00,
2013-07-04 21:35:00,72.0,60.0,29.95,SE,135,3.0,8.0,66,0.00,,,0.00,VWS V14.00,2013-07-05 02:35:00,
2013-07-04 21:40:00,72.2,59.8,29.95,SE,135,4.0,8.0,65,0.00,,,0.00,VWS V14.00,2013-07-05 02:40:00,
2013-07-04 21:45:00,72.2,59.8,29.95,SE,135,4.0,9.0,65,0.00,,,0.00,VWS V14.00,2013-07-05 02:45:00,
2013-07-04 21:50:00,72.1,59.7,29.95,SE,135,3.0,8.0,65,0.00,,,0.00,VWS V14.00,2013-07-05 02:50:00,
2013-07-04 21:55:00,72.0,60.0,29.95,SE,135,3.0,9.0,66,0.00,,,0.00,VWS V14.00,2013-07-05 02:55:00,
2013-07-04 22:00:00,71.9,59.9,29.96,SE,135,3.0,8.0,66,0.00,,,0.00,VWS V14.00,2013-07-05 03:00:00,
2013-07-04 22:05:00,71.9,59.9,29.96,SE,135,3.0,8.0,66,0.00,,,0.00,VWS V14.00,2013-07-05 03:05:00,
2013-07-04 22:10:00,71.8,59.8,29.96,SE,135,3.0,8.0,66,0.00,,,0.00,VWS V14.00,2013-07-05 03:10:00,
2013-07-04 22:15:00,71.5,60.0,29.96,SE,135,3.0,7.0,67,0.00,,,0.00,VWS V14.00,2013-07-05 03:15:00,
2013-07-04 22:20:00,71.3,59.8,29.96,SE,135,3.0,9.0,67,0.00,,,0.00,VWS V14.00,2013-07-05 03:20:00,
2013-07-04 22:25:00,71.1,60.4,29.96,SE,135,4.0,8.0,69,0.00,,,0.00,VWS V14.00,2013-07-05 03:25:00,
2013-07-04 22:30:00,71.0,59.1,29.96,SE,135,4.0,8.0,66,0.00,,,0.00,VWS V14.00,2013-07-05 03:30:00,
2013-07-04 22:35:00,71.1,59.2,29.96,SE,135,4.0,8.0,66,0.00,,,0.00,VWS V14.00,2013-07-05 03:35:00,
2013-07-04 22:40:00,71.1,58.8,29.96,SE,135,3.0,7.0,65,0.00,,,0.00,VWS V14.00,2013-07-05 03:40:00,
2013-07-04 22:45:00,71.0,58.7,29.96,SE,135,3.0,7.0,65,0.00,,,0.00,VWS V14.00,2013-07-05 03:45:00,
2013-07-04 22:50:00,70.9,58.1,29.96,SE,135,3.0,8.0,64,0.00,,,0.00,VWS V14.00,2013-07-05 03:50:00,
2013-07-04 22:55:00,70.7,58.4,29.96,SE,135,2.0,6.0,65,0.00,,,0.00,VWS V14.00,2013-07-05 03:55:00,
2013-07-04 23:00:00,70.5,57.8,29.96,SE,135,2.0,5.0,64,0.00,,,0.00,VWS V14.00,2013-07-05 04:00:00,
2013-07-04 23:05:00,70.4,58.5,29.96,SE,135,1.0,4.0,66,0.00,,,0.00,VWS V14.00,2013-07-05 04:05:00,
2013-07-04 23:10:00,70.1,59.5,29.96,ESE,112,1.0,3.0,69,0.00,,,0.00,VWS V14.00,2013-07-05 04:10:00,
2013-07-04 23:15:00,69.7,57.8,29.97,SE,135,1.0,4.0,66,0.00,,,0.00,VWS V14.00,2013-07-05 04:15:00,
2013-07-04 23:20:00,69.4,58.0,29.97,SE,135,2.0,5.0,67,0.00,,,0.00,VWS V14.00,2013-07-05 04:20:00,
2013-07-04 23:25:00,69.2,58.2,29.97,ESE,112,2.0,5.0,68,0.00,,,0.00,VWS V14.00,2013-07-05 04:25:00,
2013-07-04 23:30:00,68.9,57.9,29.97,ESE,112,2.0,6.0,68,0.00,,,0.00,VWS V14.00,2013-07-05 04:30:00,
2013-07-04 23:35:00,68.8,58.2,29.97,ESE,112,1.0,4.0,69,0.00,,,0.00,VWS V14.00,2013-07-05 04:35:00,
2013-07-04 23:40:00,68.6,59.6,29.97,ESE,112,2.0,5.0,73,0.00,,,0.00,VWS V14.00,2013-07-05 04:40:00,
2013-07-04 23:45:00,68.3,59.3,29.97,ESE,112,2.0,5.0,73,0.00,,,0.00,VWS V14.00,2013-07-05 04:45:00,
2013-07-04 23:50:00,68.0,58.7,29.97,ESE,112,1.0,4.0,72,0.00,,,0.00,VWS V14.00,2013-07-05 04:50:00,
2013-07-04 23:55:00,67.7,58.7,29.96,ESE,112,2.0,5.0,73,0.00,,,0.00,VWS V14.00,2013-07-05 04:55:00,